Regional Weather Roundup
Issued by NWS

Home | Current Version | Previous Version | Text Only | Print | Product List | Glossary Off
Versions: 1 2 3 4 5 6 7 8 9 10 11 12 13 14 15 16 17 18 19 20 21 22 23 24 25 26 27 28 29 30 31 32 33 34 35 36 37 38 39 40 41 42 43 44 45 46 47 48 49 50

000
ASUS43 KLSX 091307
RWRMO

WEATHER SUMMARY FOR MISSOURI
NATIONAL WEATHER SERVICE SPRINGFIELD MO
800 AM CDT WED JUL 09 2014

NOTE: "FAIR" INDICATES FEW OR NO CLOUDS BELOW 12,000 FEET WITH NO
       SIGNIFICANT WEATHER AND/OR OBSTRUCTIONS TO VISIBILITY.
       CURRENT SKY AND/OR WEATHER CONDITIONS ARE NOT AVAILABLE FOR
       CHILLICOTHE AND FARMINGTON.

MOZ001>031-035>038-043-044-053-054-091400-
...NORTHERN AND WESTERN MISSOURI...

CITY           SKY/WX    TMP DP  RH WIND       PRES   REMARKS
KANSAS CTY INT MOSUNNY   68  61  78 NW6       30.06R
KANSAS C DTWN  SUNNY     70  62  76 VRB3      30.05R
LEE`S SUMMIT   SUNNY     68  63  84 W3        30.06R
ST JOSEPH      MOSUNNY   65  62  90 CALM      30.06R
CHILLICOTHE      N/A     69  60  73 VRB3      30.05R
KIRKSVILLE     SUNNY     68  61  78 N6        30.03R

$$
MOZ066>068-077>081-088>096-101>105-091400-
...SOUTHWEST MISSOURI...

CITY           SKY/WX    TMP DP  RH WIND       PRES   REMARKS
SPRINGFIELD    SUNNY     70  65  84 CALM      30.07R
JOPLIN         SUNNY     70  66  87 CALM      30.08R

$$
MOZ032>034-039>042-045>050-055>058-069>072-091400-
...CENTRAL MISSOURI...

CITY           SKY/WX    TMP DP  RH WIND       PRES   REMARKS
COLUMBIA       SUNNY     69  63  81 W6        30.03R
JEFFERSON CITY SUNNY     68  63  84 CALM      30.02R
ROLLA          SUNNY     65  62  90 SW6       30.03R
SEDALIA        SUNNY     71  63  75 W7        30.04R
WHITEMAN AFB   SUNNY     68  58  68 VRB2      30.04R
OSAGE BEACH    MOSUNNY   66  63  88 CALM      30.04S

$$
MOZ051-052-059>065-091400-
...EAST CENTRAL MISSOURI...

CITY           SKY/WX    TMP DP  RH WIND       PRES   REMARKS
ST LOUIS INTL  MOSUNNY   73  62  68 W8        30.00R
SPIRIT OF STL  SUNNY     70  63  78 W3        29.99R
ST CHARLES     SUNNY     70  64  81 W6        29.98R

$$
MOZ072>076-082>087-097>100-106>115-091400-
...SOUTH CENTRAL AND SOUTHEAST MISSOURI...

CITY           SKY/WX    TMP DP  RH WIND       PRES   REMARKS
CAPE GIRARDEAU SUNNY     70  66  87 CALM      30.01R
FARMINGTON     SUNNY     68  63  83 CALM      30.05R
POPLAR BLUFF   MOSUNNY   73  64  73 NW6       30.00R
WEST PLAINS    MOSUNNY   72  63  73 CALM      30.06R

$$



USA.gov is the U.S. government's official web portal to all federal, state and local government web resources and services.